EHI
0 0 0 0 0 0 0 0 0 0 0 0 0 0 0 0 0 0 0 0 0 0 0 0 0 0 0 0 0 0 0 0 0 0 0 0 0 0 0 0 0 0 0
0 0 0 0 0 0 0 0 0 0 0 0 0 0 0 0 0 0 0 0 0 0 0 0 0 0 0 0 0 0 0 0 0 0 0 0 0 0 0 0 0 0 0
0 0 0 0 0 0 0 0 0 0 0 0 0 0 0 0 0 0 0 0 0 0 0 0 0 0 0 0 0 0 0 0 0 0 0 0 0 0 0 0 0 0 0
0 0 0 0 0 0 0 0 0 0 0 0 0 0 0 0 0 0 0 0 0 0 0 0 0 0 0 0 0 0 0 0 0 0 0 0 0 0 0 0 0 0 0
0 0 0 0 0 0 0 0 0 0 0 0 0 0 0 0 0 0 0 0 0 0 0 0 0 0 0 0 0 0 0 0 0 0 0 0 0 0 0 0 0 0 0
0 0 0 0 0 0 0 0 0 0 0 0 0 0 0 0 0 0 0 0 0 0 0 0 0 0 0 0 0 0 0 0 0 0 0 0 0 0 0 0 0 0 0
0 0 0 0 0 0 0 0 0 0 0 0 0 0 0 0 0 0 0 0 0 0 0 0 0 0 0 0 0 0 0 0 0 0 0 0 0 0 0 0 0 0 0
0 0 0 0 0 0 0 0 0 0 0 0 0 0 0 0 0 0 0 0 0 0 0 0 0 0 0 0 0 0 0 0 0 0 0 0 0 0 0 0 0 0 0
0 0 0 0 0 0 0 0 0 0 0 0 0 0 0 0 0 0 0 0 0 0 0 0 0 0 0 0 0 0 0 0 0 0 0 0 0 0 0 0 0 0 0
0 0 0 0 0 0 0 0 0 0 0 0 0 0 0 0 0 0 0 0 0 0 0 0 0 0 0 0 0 0 0 0 0 0 0 0 0 0 0 0 0 0 0
0 0 0 0 0 0 0 0 0 0 0 0 0 0 0 0 0 0 0 0 0 0 0 0 0 0 0 0 0 0 0 0 0 0 0 0 0 0 0 0 0 0 0
0 0 0 0 0 0 0 0 0 0 0 0 0 0 0 0 0 0 0 0 0 0 0 0 0 0 0 0 0 0 0 0 0 0 0 0 0 0 0 0 0 0 0
0 0 0 0 0 0 0 0 0 0 0 0 0 0 0 0 0 0 0 0 0 0 0 0 0 0 0 0 0 0 0 0 0 0 0 0 0 0 0 0 0 0 0
0 0 0 0 0 0 0 0 0 0 0 0 0 0 0 0 0 0 0 0 0 0 0 0 0 0 0 0 0 0 0 0 0 0 0 0 0 0 0 0 0 0 0
0 0 0 0 0 0 0 0 0 0 0 0 0 0 0 0 0 0 0 0 0 0 0 0 0 0 0 0 0 0 0 0 0 0 0 0 0 0 0 0 0 0 0
0 0 0 0 0 0 0 0 0 0 0 0 0 0 0 0 0 0 0 0 0 0 0 0 0 0 0 0 0 0 0 0 0 0 0 0 0 0 0 0 0 0 0
0 0 0 0 0 0 0 0 0 0 0 0 0 0 0 0 0 0 0 0 0 0 0 0 0 0 0 0 0 0 0 0 0 0 0 0 0 0 0 0 0 0 0
0 0 0 0 0 0 0 0 0 0 0 0 0 0 0 0 0 0 0 0 0 0 0 0 0 0 0 0 0 0 0 0 0 0 0 0 0 0 0 0 0 0 0
0 0 0 0 0 0 0 0 0 0 0 0 0 0 0 0 0 0 0 0 0 0 0 0 0 0 0 0 0 0 0 0 0 0 0 0 0 0 0 0 0 0 0
0 0 0 0 0 0 0 0 0 0 0 0 0 0 0 0 0 0 0 0 0 0 0 0 0 0 0 0 0 0 0 0 0 0 0 0 0 0 0 0 0 0 0
0 0 0 0 0 0 0 0 0 0 0 0 0 0 0 0 0 0 0 0 0 0 0 0 0 0 0 0 0 0 0 0 0 0 0 0 0 0 0 0 0 0 0
0 0 0 0 0 0 0 0 0 0 0 0 0 0 0 0 0 0 0 0 0 0 0 0 0 0 0 0 0 0 0 0 0 0 0 0 0 0 0 0 0 0 0
0 0 0 0 0 0 0 0 0 0 0 0 0 0 0 0 0 0 0 0 0 0 0 0 0 0 0 0 0 0 0 0 0 0 0 0 0 0 0 0 0 0 0
0 0 0 0 0 0 0 0 0 0 0 0 0 0 0 0 0 0 0 0 0 0 0 0 0 0 0 0 0 0 0 0 0 0 0 0 0 0 0 0 0 0 0
0 0 0 0 0 0 0 0 0 0 0 0 0 0 0 0 0 0 0 0 0 0 0 0 0 0 0 0 0 0 0 0 0 0 0 0 0 0 0 0 0 0 0
0 0 0 0 0 0 0 0 0 0 0 0 0 0 0 0 0 0 0 0 0 0 0 0 0 0 0 0 0 0 0 0 0 0 0 0 0 0 0 0 0 0 0
Wind_Speed
9 9 9 9 9 9 10 10 10 9 9 10 10 9 9 8 8 7 6 6 7 6 5 6 6 5 4 4 3 3 4 4 7 6 4 4 4 5 6 5 5 6 7
8 8 9 8 8 9 9 9 10 10 10 10 9 9 9 8 8 8 8 7 8 8 7 6 6 4 5 4 4 5 5 5 6 9 5 4 5 5 6 6 6 6 5
7 8 8 8 9 9 9 9 9 10 9 9 9 10 9 9 9 8 8 8 8 8 7 7 7 6 6 5 5 5 5 5 5 6 7 4 4 4 4 5 6 6 7
8 8 9 9 9 8 8 8 9 9 9 9 9 9 8 8 8 8 7 7 7 7 7 7 7 7 8 7 6 6 5 5 5 5 6 5 4 4 3 5 5 4 6
8 9 9 7 7 7 7 7 8 8 9 8 8 7 7 6 7 7 7 7 7 7 6 6 7 9 10 8 6 5 5 5 4 5 6 5 5 4 4 4 6 6 6
9 8 7 7 7 7 7 7 7 7 6 7 7 7 7 6 9 12 9 7 7 7 7 6 6 8 11 14 15 13 10 7 6 5 6 6 7 6 5 5 6 7 6
8 7 7 7 7 7 7 7 7 7 6 6 6 6 7 7 10 11 11 6 6 6 7 6 6 6 9 6 10 14 13 15 14 8 8 8 7 6 6 7 7 8 8
7 7 7 7 7 6 7 7 6 5 6 6 6 6 5 6 9 10 9 6 5 6 6 6 6 6 6 7 6 6 7 8 10 8 8 8 8 7 7 8 8 7 6
7 7 7 7 7 7 7 6 5 4 4 4 4 5 5 5 7 8 7 4 4 5 5 5 6 6 11 13 7 7 8 8 11 15 15 14 16 16 12 5 4 5 7
8 7 7 7 7 7 7 5 4 4 4 4 3 4 5 5 7 8 7 3 4 4 4 5 9 10 13 13 8 7 9 9 7 7 9 10 9 10 14 7 5 6 6
6 6 6 6 6 6 5 4 4 4 3 3 3 3 3 4 6 8 8 4 5 4 4 4 5 12 14 14 12 7 11 10 5 5 5 5 5 5 5 5 5 5 6
6 6 5 5 5 5 5 4 4 4 4 3 2 2 2 3 4 6 8 8 6 4 5 4 6 11 13 14 11 12 15 12 4 3 4 4 4 5 5 5 6 6 6
7 6 5 5 4 5 5 5 4 3 3 2 2 3 3 2 3 7 8 9 8 5 4 8 10 12 11 8 11 14 11 4 3 4 5 5 4 5 4 4 5 5 6
7 6 5 5 4 4 3 4 4 4 3 3 3 3 3 2 3 3 4 4 7 6 5 8 11 10 7 8 8 6 4 4 4 4 5 4 3 3 3 3 3 3 3
7 5 5 4 4 3 2 2 3 3 4 4 4 4 3 4 5 7 4 3 3 4 4 2 2 2 3 3 3 3 3 3 4 3 4 4 4 4 4 3 3 3 3
6 5 4 3 3 3 2 1 1 0 2 3 3 3 4 5 6 7 8 9 9 9 5 2 3 3 4 4 4 4 4 4 4 4 4 4 4 4 4 3 3 3 3
6 5 4 3 3 3 2 2 0 2 2 2 3 4 5 6 7 8 8 8 9 7 3 3 4 4 4 4 4 4 4 4 4 4 4 4 4 4 4 4 3 3 3
6 5 5 3 3 3 2 2 2 1 2 2 3 5 6 6 7 7 8 6 4 3 3 4 4 4 4 4 4 4 4 4 3 4 4 4 3 3 3 3 3 3 3
5 4 3 3 3 2 2 2 1 2 2 2 2 4 6 6 7 7 6 2 3 4 4 4 4 4 4 4 4 4 4 4 4 4 4 4 4 3 4 4 3 5 3
4 5 4 3 2 2 2 2 2 2 2 2 3 3 3 2 2 3 3 3 4 4 4 4 4 4 4 4 4 4 4 4 4 4 4 4 4 3 4 4 3 3 2
3 3 4 3 2 2 2 2 2 2 3 3 3 4 6 3 3 4 4 4 4 4 5 4 4 4 4 4 4 4 5 4 4 4 4 4 3 3 3 3 3 3 2
3 3 2 2 2 2 2 2 2 3 3 4 4 5 8 4 4 4 4 5 4 4 4 4 4 4 4 4 4 4 5 5 4 4 4 4 3 3 3 3 2 2 2
3 3 2 1 1 2 1 1 2 3 3 4 4 4 4 4 4 5 5 5 4 4 4 4 4 4 4 4 4 5 5 5 5 4 4 4 4 3 3 3 3 2 2
3 3 2 1 1 1 2 2 3 3 4 4 4 4 4 4 5 5 5 5 4 4 4 4 5 6 7 6 4 4 5 5 5 5 6 5 4 4 3 3 3 3 3
2 2 2 2 2 2 2 3 3 4 4 5 5 5 5 5 5 5 5 5 5 5 6 5 5 5 7 8 7 6 9 12 10 6 5 5 5 5 4 4 3 3 3
2 2 2 2 2 2 3 3 4 4 5 5 5 5 5 5 6 6 5 5 5 5 6 5 6 7 8 7 8 10 13 13 13 11 5 5 5 5 5 4 5 4 3
Wind_Direction
187 186 186 187 184 183 187 190 188 184 181 183 186 186 188 189 187 189 196 191 199 208 207 208 220 213 214 216 211 208 210 203 246 269 250 256 260 267 281 275 270 270 278
186 183 187 183 181 185 190 188 184 185 186 186 184 187 191 192 191 193 199 198 202 209 213 212 224 218 223 223 219 224 224 216 230 267 275 263 255 259 265 273 279 278 269
181 182 184 184 185 191 190 185 184 184 185 185 185 191 194 194 195 199 200 203 208 212 212 213 221 216 230 232 230 233 234 236 227 251 273 265 263 264 273 275 274 275 278
180 184 189 191 191 190 185 182 183 182 183 187 191 195 195 195 197 200 201 207 213 218 217 218 220 218 228 233 237 237 238 241 240 251 266 271 266 266 263 275 284 267 273
181 188 194 189 183 178 177 179 180 182 186 186 187 192 192 194 201 199 202 207 212 221 226 226 228 232 237 241 245 243 236 243 248 255 265 274 272 272 267 265 281 282 269
184 191 184 176 175 176 177 175 175 180 180 179 187 190 194 205 211 209 206 208 212 218 229 235 239 243 251 260 265 267 258 250 251 251 260 265 271 265 267 269 281 291 288
183 182 176 174 175 177 172 171 177 180 178 185 191 192 202 214 214 217 216 209 213 221 227 234 244 246 255 251 265 273 274 271 268 264 261 263 269 267 269 273 270 274 274
174 174 171 169 171 167 166 175 178 175 182 188 194 197 204 219 219 222 219 210 218 228 230 231 237 247 249 255 250 256 257 261 265 263 253 259 259 260 253 264 270 274 267
174 175 173 169 167 166 173 177 173 170 181 187 188 191 201 221 221 223 216 205 222 235 237 235 239 246 260 269 265 261 267 267 273 274 273 277 282 288 289 285 280 285 288
179 174 166 164 166 172 175 170 162 167 178 176 186 194 201 217 229 231 224 206 224 237 240 241 249 258 266 271 261 256 265 268 266 275 277 282 282 284 290 280 265 274 282
159 148 150 158 163 163 156 151 151 153 156 171 190 208 213 223 233 236 235 220 220 232 240 243 249 266 272 275 274 260 266 278 265 259 265 268 271 269 271 266 254 251 266
135 138 144 148 146 140 142 143 146 149 158 176 190 227 234 233 233 241 244 246 249 235 240 242 251 270 276 279 280 279 285 291 281 271 269 269 269 267 264 262 259 253 246
130 136 138 135 133 138 145 148 146 152 163 183 192 222 245 240 244 251 255 258 260 253 249 265 273 278 282 280 282 288 292 286 275 272 271 268 260 259 263 270 272 267 265
134 137 137 135 133 132 138 148 155 167 177 190 205 225 242 251 249 247 245 253 263 265 267 273 282 287 286 285 288 290 279 265 271 266 270 270 269 266 264 264 270 274 277
132 133 133 133 139 139 142 162 173 191 188 192 207 205 217 243 251 259 262 246 240 248 272 264 266 272 266 268 269 268 263 272 278 267 271 276 276 272 271 263 255 258 259
134 136 137 136 136 136 134 82 7 243 244 242 244 240 246 264 285 281 281 284 286 286 287 258 257 254 255 258 263 265 261 260 257 260 266 269 272 271 273 270 253 248 259
140 142 138 139 142 144 148 155 246 340 337 299 287 282 281 289 292 290 289 290 288 291 273 256 256 256 257 257 257 258 261 261 257 257 263 265 267 268 272 275 269 262 264
131 136 138 144 148 153 161 172 184 212 281 297 301 301 302 300 299 297 298 303 290 281 253 255 259 261 259 257 257 258 260 261 257 256 257 258 260 264 267 269 264 256 263
130 134 135 138 142 150 156 168 191 214 240 272 295 304 306 305 302 298 301 265 256 260 257 258 258 259 258 256 256 255 252 254 256 252 252 253 250 251 258 261 257 265 270
126 135 135 138 141 147 162 184 208 223 241 256 265 273 288 293 278 280 267 251 252 257 257 258 259 258 255 254 255 254 253 253 253 248 249 250 248 244 248 251 247 251 253
130 136 133 131 154 174 190 208 218 226 239 253 260 270 280 269 256 260 261 256 253 256 258 259 259 259 255 252 250 251 251 254 250 247 247 245 239 242 244 244 240 237 243
134 139 148 161 173 189 210 216 221 233 245 257 268 278 285 277 259 260 260 261 255 251 251 253 256 252 247 246 247 249 249 251 250 245 241 238 232 238 242 235 227 227 228
137 144 154 169 186 225 252 233 238 245 254 259 266 272 272 264 263 263 263 262 259 258 256 253 256 258 255 248 242 241 243 245 242 238 237 235 229 229 227 225 218 215 223
146 158 171 189 204 217 233 247 252 258 262 265 267 269 268 266 267 267 265 263 262 262 257 253 253 256 258 257 252 246 243 247 242 234 230 228 225 224 220 217 215 214 220
153 167 182 199 216 232 245 254 258 262 266 269 269 270 270 269 270 270 266 264 264 264 263 259 256 256 257 258 257 252 260 265 263 248 218 215 219 218 215 213 210 208 209
160 180 200 216 229 239 246 254 260 263 264 269 268 267 268 270 270 270 267 263 263 262 262 260 255 254 256 257 258 263 270 271 268 264 235 204 208 214 208 208 206 203 196